Location: Washington
(38.8950°N, 77.0370°W)
Time: 19:12:37
(UTC-05:00)

Tiangong 1 - Visible Passes

Search period start: 22 February 2017 00:00
Search period end: 04 March 2017 00:00
Orbit: 338 x 362 km, 42.8° (Epoch: 22 February)

Date Brightness Start Highest point End Pass type
(mag) Time Alt. Az. Time Alt. Az. Time Alt. Az.
22 Feb 1.6 05:19:06 42° S 05:19:28 45° SSE 05:22:18 10° ENE visible
23 Feb 0.8 05:43:28 29° W 05:44:46 72° NNW 05:47:43 10° ENE visible
24 Feb 3.9 04:36:11 17° E 04:36:11 17° E 04:37:02 10° ENE visible
24 Feb 1.6 06:07:42 12° W 06:10:11 41° N 06:13:01 10° ENE visible
25 Feb 2.2 05:00:17 38° NE 05:00:17 38° NE 05:02:18 10° ENE visible
26 Feb 1.6 05:24:17 36° NNW 05:24:44 39° N 05:27:31 10° ENE visible
27 Feb 1.9 05:48:13 17° WNW 05:50:04 36° N 05:52:49 10° ENE visible
28 Feb 3.4 04:40:36 20° NE 04:40:36 20° NE 04:41:49 10° ENE visible
01 Mar 2.0 05:04:25 36° NNE 05:04:25 36° NNE 05:07:03 10° ENE visible
02 Mar 1.4 05:28:14 28° NW 05:29:27 52° NNE 05:32:18 10° E visible
03 Mar 4.2 04:20:33 14° ENE 04:20:33 14° ENE 04:21:05 10° ENE visible
03 Mar 0.8 05:52:03 14° WNW 05:54:26 74° SSW 05:57:19 10° ESE visible
